• Processing (Info)

  • MPEC 2022-M62 : 2022 MO1

    The following Minor Planet Electronic Circular may be linked-to from your own Web pages, but must not otherwise be redistributed electronically.

    A form allowing access to any MPEC is at the bottom of this page.


    Read MPEC 2022-M61 Read MPEC 2022-M63


    M.P.E.C. 2022-M62                                 Issued 2022 June 24, 13:01 UT
    
         The Minor Planet Electronic Circulars contain information on unusual
             minor planets and routine data on comets.  They are published
        on behalf of Division F of the International Astronomical Union by the
              Minor Planet Center, Smithsonian Astrophysical Observatory,
                              Cambridge, MA 02138, U.S.A.
    
                 Prepared using the Tamkin Foundation Computer Network
    
                                  MPC@CFA.HARVARD.EDU
                URL https://www.minorplanetcenter.net/    ISSN 1523-6714
    
                                    2022 MO1                                 
    
    
    Observations:
         K22M01O* C2022 06 23.20219414 40 32.059+34 34 49.69         20.11GVEM062G96
         K22M01O  C2022 06 23.20802914 40 12.191+34 37 43.14         19.61GVEM062G96
         K22M01O  C2022 06 23.21369314 39 53.014+34 40 30.00         19.30GVEM062G96
         K22M01O KC2022 06 23.31745914 34 01.416+35 30 13.86         19.44GVEM062I52
         K22M01O KC2022 06 23.31824514 33 58.770+35 30 36.54         19.93GVEM062I52
         K22M01O KC2022 06 23.31902814 33 56.113+35 30 58.18         19.89GVEM062I52
         K22M01O KC2022 06 23.31980714 33 53.485+35 31 20.03         19.81GVEM062I52
         K22M01O KC2022 06 23.32059514 33 50.843+35 31 41.95         19.33GVEM062I52
         K22M01O KC2022 06 23.32139714 33 48.128+35 32 04.63         19.27GVEM062I52
         K22M01O KC2022 06 23.32218814 33 45.446+35 32 26.92         19.60GVEM062I52
         K22M01O KC2022 06 23.32296814 33 42.840+35 32 48.73         19.67GVEM062I52
         K22M01O KC2022 06 23.37850114 30 36.076+35 58 29.53         19.50GVEM062I52
         K22M01O KC2022 06 23.37928314 30 33.476+35 58 51.24         19.36GVEM062I52
         K22M01O KC2022 06 23.38006514 30 30.874+35 59 12.30         19.64GVEM062I52
         K22M01O KC2022 06 23.38084614 30 28.238+35 59 34.19         21.12GVEM062I52
         K22M01O KC2022 06 24.15025813 46 07.71 +41 27 25.8          20.0 VuEM062H21
         K22M01O KC2022 06 24.15238413 45 59.75 +41 28 11.0          20.0 VuEM062H21
         K22M01O KC2022 06 24.15451013 45 51.85 +41 28 56.3          20.1 VuEM062H21
         K22M01O KC2022 06 24.15663513 45 43.92 +41 29 41.4          19.9 VuEM062H21
    
    Observer details:
    G96 Mt. Lemmon Survey.  Observer D. Rankin.  Measurers E. J. Christensen, D.
        Fay, J. B. Fazekas, D. C. Fuls, A. R. Gibbs, A. D. Grauer, H. Groeller, J.
        K. Hogan, R. A. Kowalski, S. M. Larson, G. J. Leonard, D. Rankin, R. L.
        Seaman, A. Serrano, F. C. Shelly, K. W. Wierzchos.  1.5-m reflector + 10K
        CCD.
    H21 Astronomical Research Observatory, Westfield.  Observer R. Holmes.
        Measurers T. Linder, R. Holmes, L. Horn.  0.76-m f/3.0 astrograph + CCD.
    I52 Steward Observatory, Mt. Lemmon Station.  Observer R. A. Kowalski.
        Measurers E. J. Christensen, D. Fay, J. B. Fazekas, D. C. Fuls, A. R.
        Gibbs, A. D. Grauer, H. Groeller, J. K. Hogan, R. A. Kowalski, S. M.
        Larson, G. J. Leonard, D. Rankin, R. L. Seaman, A. Serrano, F. C. Shelly,
        K. W. Wierzchos.  1.0-m prime focus + CCD.
    
    Orbital elements:
    2022 MO1                                                 Earth MOID = 0.0181 AU
    Epoch 2022 Aug. 9.0 TT = JDT 2459800.5                  Veres                   
    M 326.17009              (2000.0)            P               Q                  
    n   1.07141563     Peri.  136.46145     +0.83590769     -0.54457291             
    a   0.9458684      Node   256.65383     +0.48230268     +0.78839108             
    e   0.3488008      Incl.    4.03981     +0.26199705     +0.28614656             
    P   0.92           H   25.32          G   0.15           U   7                  
    Residuals in seconds of arc
    220623 G96 (1.4+  0.8-)   220623 I52  0.1+  0.2-    220623 I52  0.1-  0.2+
    220623 G96  0.0   0.1+    220623 I52  0.1+  0.0     220624 H21  0.0   0.0
    220623 G96  0.1+  0.0     220623 I52  0.1-  0.1+    220624 H21  0.3-  0.1-
    220623 I52  0.1-  0.2-    220623 I52  0.2+  0.0     220624 H21  0.1+  0.1+
    220623 I52  0.0   0.4+    220623 I52  0.3-  0.1-    220624 H21  0.1+  0.0
    220623 I52  0.1-  0.1+    220623 I52  0.1-  0.2+
    220623 I52  0.1-  0.0     220623 I52  0.1+  0.3-
    
    Ephemeris:
    2022 MO1                 a,e,i = 0.95, 0.35, 4                   q = 0.6159
    Date    TT    R. A. (2000) Decl.     Delta      r    Elong.  Phase     V
    2022 05 25    18 44 47.8 -26 49 43   0.1774  1.1599   143.3    31.4    23.2
    ...
    2022 06 09    18 26 05.0 -21 04 00   0.08456 1.0956   161.6    17.0    21.1
    ...
    2022 06 17    17 35 27.5 -07 33 11   0.04147 1.0558   164.1    15.2    19.4
    ...
    2022 06 23    14 51 20.2 +32 51 49   0.02360 1.0235   107.1    71.6    19.7
    2022 06 24    13 55 21.2 +40 30 43   0.02436 1.0180    93.0    85.6    20.3
    2022 06 25    12 55 03.4 +45 37 02   0.02635 1.0124    80.3    98.2    21.0
    ...
    2022 07 01    09 21 30.1 +45 29 17   0.05162 0.9776    39.8   138.3    25.5
    ...
    2022 07 09    08 15 18.7 +39 35 17   0.09560 0.9286    21.9   155.9    29.8
    ...
    2022 07 24    07 42 33.0 +34 11 56   0.1932  0.8315    15.7   160.8    32.6
    
    M. P. C. Staff               (C) Copyright 2022 MPC           M.P.E.C. 2022-M62
    


    Read MPEC 2022-M61 Read MPEC 2022-M63


    MPEC number:

    Enter an MPEC number in one of the following forms:

    • 1997-B01 (the full form)
    • J97B01 (the packed version of the full form)
    • B01 (the abbreviated form)